Wind_Speed
13 11 10 10 9 9 9 7 7 7 7 6 6 5 5 4 4 4 4 5 6 7 8 8 9 9 10 10 11 11 10 10 10 10 9 8 5 5 7 8 7 6
14 13 12 10 10 11 9 8 9 8 8 7 6 6 6 5 4 4 4 6 7 8 9 9 10 11 11 12 12 12 11 11 11 10 9 8 6 6 8 8 7 7
16 15 14 11 11 12 10 10 10 9 8 7 7 6 6 5 4 5 6 7 8 8 8 10 11 12 13 13 12 12 12 12 12 11 10 10 9 9 8 7 9 9
17 16 15 11 11 12 12 12 11 9 8 7 7 6 6 6 6 7 7 8 9 9 9 10 11 12 13 14 13 12 13 14 13 11 11 11 10 9 8 8 10 9
18 16 15 12 12 13 13 12 10 10 10 9 8 7 7 6 6 7 8 9 10 11 11 11 11 12 13 14 14 14 14 15 14 13 13 11 9 9 9 9 9 8
19 18 16 15 14 14 13 13 11 10 10 10 9 9 8 8 8 9 10 11 11 12 12 12 12 13 14 15 15 16 16 16 14 14 14 12 11 10 10 11 9 7
20 20 18 17 15 15 14 14 12 11 12 12 12 11 10 10 10 11 11 11 11 12 12 12 13 15 16 16 17 17 16 15 14 14 14 13 13 12 12 12 10 8
21 20 19 17 17 16 16 15 13 13 14 14 13 11 10 11 11 12 12 11 11 12 12 12 14 15 16 17 17 17 17 16 14 13 13 14 14 14 14 13 11 11
21 21 20 18 18 17 17 16 15 16 16 15 13 11 11 11 12 13 13 13 13 14 13 13 14 14 15 16 17 18 18 17 15 13 15 16 16 16 15 13 12 13
21 21 21 20 19 18 18 17 16 17 17 15 12 11 12 13 13 13 13 14 15 15 15 15 16 16 16 16 17 17 15 16 17 17 17 17 16 17 17 16 15 16
21 21 21 21 20 19 19 18 16 16 14 11 10 11 12 14 13 13 13 13 15 15 16 16 16 15 15 14 15 14 14 17 19 17 16 17 16 17 18 18 18 18
23 23 22 21 20 19 19 18 16 15 12 8 8 9 9 10 12 12 13 14 17 17 16 14 13 12 13 14 14 14 14 15 15 14 15 17 17 17 18 18 18 19
26 26 24 22 21 19 18 16 15 15 13 9 8 8 7 8 10 12 15 17 16 14 13 12 13 13 14 14 14 13 12 10 11 12 13 15 15 16 17 17 19 21
29 27 25 23 21 20 19 17 16 16 14 12 11 12 11 12 13 14 16 16 13 12 13 14 15 16 14 12 12 10 8 8 10 11 11 12 14 15 15 16 19 21
31 29 25 23 20 19 18 18 17 17 15 13 14 14 14 16 16 15 15 15 14 14 14 14 15 15 13 11 10 8 7 8 9 9 10 11 13 14 16 17 19 20
32 30 26 24 22 20 19 18 18 18 16 15 15 15 16 18 18 17 15 16 16 15 13 13 14 13 11 11 11 10 9 9 10 11 11 11 12 14 16 18 19 20
32 30 27 26 23 22 21 21 20 19 17 16 16 17 18 19 20 18 17 16 16 15 14 13 14 14 13 13 12 10 10 10 12 13 14 14 14 15 17 19 20 21
32 30 29 27 24 22 22 21 20 18 17 17 17 18 19 20 21 20 17 16 16 15 15 14 15 16 15 13 11 10 10 10 12 14 15 17 18 17 17 18 19 21
32 31 29 26 23 23 23 22 20 19 18 19 19 19 20 21 21 20 17 17 16 17 17 16 16 16 15 12 11 10 9 9 12 15 17 19 20 20 19 18 19 20
32 31 28 25 24 24 24 23 22 21 20 20 21 21 21 21 21 19 18 19 19 18 17 16 16 15 13 12 11 11 10 11 14 17 19 20 20 20 20 18 18 19
31 30 28 27 26 26 26 26 25 24 22 22 21 20 20 21 20 19 19 20 19 19 17 17 16 14 12 12 12 12 11 12 15 18 20 20 20 19 19 18 18 18
32 32 29 28 27 28 29 29 28 26 23 22 22 20 20 20 20 19 19 18 18 18 17 16 16 12 11 13 13 11 10 12 16 19 20 21 20 19 17 17 18 18
33 33 31 29 29 30 31 31 30 28 24 23 23 22 21 22 21 20 19 18 16 12 7 8 10 8 11 14 12 9 10 14 18 20 20 20 20 19 18 18 19 19
34 33 32 31 31 32 32 31 30 28 25 25 24 23 24 25 23 19 16 14 10 4 1 3 4 4 7 9 8 7 11 14 17 19 19 18 18 18 18 19 20 20
35 34 33 33 34 34 33 31 29 28 26 26 26 25 26 25 21 15 11 8 6 5 5 4 3 3 5 5 5 9 11 12 13 15 16 16 16 18 19 20 20 19
35 34 34 34 34 34 32 30 27 23 20 21 21 21 21 19 15 10 7 6 6 7 6 5 5 6 8 8 11 13 11 10 11 11 13 15 16 18 20 21 20 17
Wind_Direction
182 181 184 187 191 192 187 186 195 197 203 218 228 241 261 283 288 292 294 293 305 314 313 313 312 309 307 308 308 306 305 306 308 308 304 303 299 299 317 330 327 320
183 182 187 192 196 203 205 198 196 201 212 221 225 236 248 256 260 255 262 284 300 305 307 309 308 306 305 306 305 302 299 301 304 299 291 290 286 293 307 315 310 306
185 184 189 194 203 213 209 189 188 204 218 222 225 232 240 240 247 259 265 282 292 293 298 302 304 306 309 310 306 297 292 295 299 293 285 283 282 290 300 297 299 306
184 188 193 198 207 213 205 192 198 217 222 225 229 231 241 249 260 269 271 278 284 286 291 295 301 306 309 311 307 297 291 291 292 289 286 281 278 286 291 288 297 303
184 190 197 198 200 205 204 204 215 227 225 228 234 238 250 261 266 270 273 277 280 284 288 292 298 301 303 308 308 304 300 295 289 286 286 279 277 283 280 280 289 292
188 191 195 196 199 204 208 212 220 222 222 227 235 239 244 250 257 263 269 274 278 283 289 294 297 298 300 301 303 304 305 300 292 288 285 274 276 282 272 272 278 275
188 191 194 196 199 206 210 215 220 221 224 233 238 241 244 248 254 261 267 271 275 280 286 293 295 296 298 298 298 299 300 300 297 292 286 277 279 283 273 269 267 256
186 191 193 195 199 205 210 215 220 223 228 235 239 242 245 247 254 262 265 264 268 274 280 288 292 294 295 295 294 294 295 298 294 287 284 281 282 282 275 267 255 247
188 194 195 198 201 206 211 215 219 226 233 237 241 247 247 248 255 261 260 261 266 271 273 280 290 293 291 290 291 292 295 298 293 286 283 279 278 279 276 268 253 246
192 197 198 200 202 205 212 216 223 232 237 237 239 246 246 246 253 258 260 265 269 271 273 279 287 289 287 288 290 290 294 301 299 292 286 281 280 281 279 275 264 253
192 197 198 200 203 208 213 216 223 230 230 230 234 238 236 239 251 260 262 266 271 275 280 284 287 289 291 295 295 290 296 305 301 288 279 281 285 286 286 282 273 266
194 199 201 202 206 211 215 218 221 225 230 242 245 239 237 246 260 266 266 271 276 279 283 289 291 293 297 301 299 296 301 306 299 283 277 283 288 292 292 287 282 280
197 202 203 205 207 211 213 215 221 230 240 247 241 242 257 267 266 265 269 275 277 278 288 298 298 293 293 297 296 295 298 297 293 289 287 291 297 299 297 293 290 286
200 203 203 205 208 211 212 215 224 234 239 238 241 254 269 273 268 267 275 278 276 281 294 296 290 285 286 292 292 287 286 290 293 293 293 298 302 304 304 301 299 295
201 201 201 202 205 208 212 218 225 231 233 239 248 258 264 265 265 267 274 277 277 285 293 290 282 279 280 286 286 276 269 279 287 287 290 296 301 307 310 307 304 307
201 200 200 200 201 205 212 219 226 230 234 242 249 252 255 256 257 260 263 268 273 279 285 287 283 279 280 285 286 281 272 269 274 277 282 288 292 300 306 305 305 308
200 199 201 202 202 206 214 221 227 230 234 241 243 245 250 252 251 252 255 261 265 266 270 281 282 280 283 288 286 284 280 275 276 279 281 284 288 295 301 303 304 306
198 197 200 200 201 209 217 221 225 227 232 238 239 243 250 252 249 249 255 261 258 253 258 269 274 273 276 281 282 281 281 281 284 285 284 285 288 291 296 299 302 305
195 195 196 198 204 215 221 222 222 226 232 237 241 247 252 253 250 250 257 258 249 247 255 261 262 265 271 278 281 281 284 293 300 300 296 293 292 293 293 297 304 309
193 195 199 204 211 218 222 223 223 225 231 238 243 248 251 252 251 251 257 258 251 248 252 255 255 260 268 277 280 279 285 300 310 312 307 301 300 299 295 297 307 312
197 200 204 208 213 218 221 223 223 225 230 238 243 246 249 251 252 253 260 262 253 247 250 255 254 255 262 274 280 277 280 296 312 318 316 311 310 308 300 298 305 307
200 202 206 210 214 217 219 221 222 223 229 237 239 241 246 251 253 256 262 264 254 250 258 260 254 257 276 281 280 276 279 299 317 322 321 318 317 313 305 302 303 301
201 203 206 211 214 215 218 222 222 223 230 236 236 237 243 249 253 256 263 267 260 258 278 276 261 277 296 287 280 286 300 309 317 320 321 321 320 317 310 305 304 303
202 205 209 212 214 215 218 222 222 224 229 233 234 238 244 248 252 258 264 261 247 231 304 286 258 268 279 270 272 300 314 315 314 315 319 321 321 319 313 309 309 309
205 208 211 213 215 216 219 223 224 226 232 236 238 242 245 246 248 254 258 250 243 251 251 232 203 201 217 227 271 301 311 321 321 316 318 322 321 318 313 311 313 315
207 210 213 215 217 219 221 223 224 228 236 241 242 245 248 248 248 256 267 267 272 269 249 234 248 249 238 250 281 294 305 323 327 321 321 321 319 316 314 312 313 314
Height
818 819 821 821 822 822 822 822 822 823 824 824 825 825 825 825 825 826 826 827 827 827 827 827 827 827 826 826 826 826 827 827 826 826 826 826 825 825 825 824 824 823
817 818 820 821 822 822 822 822 822 823 823 824 824 825 825 825 825 825 825 826 826 826 826 826 826 826 826 826 826 826 826 826 826 825 825 825 824 824 824 823 822 822
816 817 818 820 821 821 821 821 821 822 823 823 824 824 824 824 824 824 825 825 825 825 825 825 825 825 825 825 825 825 825 825 824 824 824 823 823 823 822 822 821 821
814 815 817 818 819 820 821 820 821 821 822 822 823 824 824 824 824 824 824 824 824 824 824 824 824 824 824 824 824 824 823 823 823 822 822 821 821 821 821 820 820 819
812 814 815 817 818 819 819 820 820 820 820 821 822 823 823 823 822 822 822 822 822 822 822 822 823 823 823 823 822 822 822 821 821 820 820 819 819 819 819 819 818 818
810 812 814 815 816 817 818 818 819 819 819 820 820 821 821 821 821 821 821 820 820 820 821 821 821 821 822 822 821 821 820 820 819 819 818 818 818 818 817 817 816 816
809 811 813 814 815 816 816 817 817 817 817 818 818 819 820 819 819 819 819 818 818 818 819 819 819 820 820 820 820 819 819 818 818 818 817 817 816 816 816 815 814 814
808 810 811 812 813 814 815 816 816 816 816 816 816 817 818 818 818 817 817 816 816 816 816 817 817 817 818 817 817 817 816 816 816 816 816 815 814 814 813 813 813 812
806 809 810 811 812 812 813 814 814 814 814 814 814 815 815 816 816 816 815 815 814 814 814 814 815 815 815 815 814 814 814 814 815 814 814 813 812 811 811 811 810 810
805 807 809 809 810 810 811 811 812 812 812 812 812 812 813 814 814 814 814 813 813 812 812 812 812 812 812 812 812 812 812 812 812 812 811 810 809 809 809 808 808 807
804 806 807 807 807 808 808 809 809 809 810 810 809 809 810 812 813 813 812 812 811 810 810 810 810 810 810 810 809 809 809 809 808 807 808 807 807 807 806 806 805 804
802 804 805 805 805 806 806 806 807 808 808 807 807 807 809 810 811 811 810 809 809 808 808 808 808 808 808 807 807 807 807 806 805 804 804 804 804 804 803 803 803 802
799 801 802 803 803 804 805 805 805 806 806 805 805 806 808 809 809 809 808 807 807 806 806 807 807 806 806 805 805 805 804 804 803 803 802 802 801 801 800 800 800 800
796 799 799 800 801 802 803 803 804 804 804 804 804 805 806 807 807 807 807 806 805 805 805 805 805 804 804 804 803 803 803 802 801 801 800 799 799 798 798 798 797 797
794 796 797 798 799 800 801 801 802 802 802 802 803 803 804 804 804 805 805 804 804 804 804 803 803 803 802 802 802 801 801 800 799 799 798 797 797 796 796 795 795 794
791 794 795 796 797 797 798 799 800 800 800 800 800 801 801 801 802 802 802 802 802 802 803 802 801 801 801 801 800 799 799 798 797 797 796 795 794 794 794 793 793 793
789 791 793 794 794 794 795 796 797 797 797 798 798 798 799 798 799 799 798 799 799 800 801 801 800 800 800 799 798 798 797 796 796 795 794 793 792 792 792 791 791 791
787 789 790 791 791 791 792 793 794 795 795 796 796 796 796 796 796 796 795 796 796 797 798 798 798 798 798 797 797 796 796 795 794 793 792 791 790 790 790 789 789 789
785 786 787 787 787 788 789 791 792 793 793 794 794 794 794 794 794 793 793 793 794 795 795 795 796 796 796 796 795 795 795 794 793 792 790 788 788 787 787 787 787 787
782 783 783 784 784 786 787 789 790 790 791 791 791 792 792 792 792 791 791 791 791 792 793 793 793 794 793 793 793 793 793 793 792 790 788 786 786 785 785 785 784 784
778 779 780 780 781 783 785 786 787 787 788 789 789 789 789 789 789 789 789 789 789 790 790 791 791 791 792 792 792 791 791 791 790 789 787 785 784 784 783 783 783 782
773 775 776 777 778 780 781 783 784 784 785 786 786 787 787 786 786 787 787 787 788 788 788 789 790 790 790 791 790 790 790 789 789 787 785 784 783 783 782 782 781 781
769 771 772 773 775 776 778 779 780 781 782 783 783 784 784 784 784 784 785 786 786 787 787 788 789 789 789 789 789 789 788 787 786 785 783 782 782 782 781 780 780 779
765 767 769 770 771 772 774 775 776 777 779 779 780 781 781 781 781 782 784 784 785 785 785 786 787 787 786 787 787 786 785 785 784 782 780 780 780 780 779 778 778 777
762 764 765 766 767 768 770 771 772 774 775 776 777 778 778 779 780 781 782 783 783 782 782 782 783 784 784 784 784 783 782 781 780 779 778 779 778 777 777 776 776 776
758 760 762 763 764 765 767 769 770 772 774 774 775 776 777 778 780 780 781 781 780 780 780 780 781 781 782 782 780 780 779 778 778 777 777 777 776 775 775 774 774 774